This is the latest recevied weather packets stored in our database for station/object KH6DH-13. If no packets are shown the sender has not sent any weather packets the latest 10 day(s).
| Time | Temp. | Humidity | Pressure | Rain* | Wind** | Luminosity | Snow |
|---|---|---|---|---|---|---|---|
| 1777685962 | 25.56° C | - | - | 0.76 mm | 2.24 m/s, 343° | - | - |
| 1777685361 | 25° C | - | - | 0.25 mm | 1.79 m/s, 72° | - | - |
| 1777684760 | 26.11° C | - | - | 0.25 mm | 2.24 m/s, 90° | - | - |
| 1777684159 | 25.56° C | - | - | 0.25 mm | 1.79 m/s, 59° | - | - |
| 1777683558 | 25.56° C | - | - | 0.25 mm | 2.68 m/s, 90° | - | - |
| 1777682957 | 25.56° C | - | - | 0.25 mm | 1.34 m/s, 359° | - | - |
| 1777682356 | 26.67° C | - | - | 0.25 mm | 2.68 m/s, 120° | - | - |
| 1777681755 | 27.22° C | - | - | 0 mm | 2.68 m/s, 132° | - | - |
| 1777681154 | 26.67° C | - | - | 0 mm | 0.45 m/s, 23° | - | - |
| 1777680553 | 26.67° C | - | - | 0 mm | 2.24 m/s, 359° | - | - |
| 1777679953 | 26.67° C | - | - | 0 mm | 2.24 m/s, 160° | - | - |
| 1777679351 | 26.67° C | - | - | 0 mm | 0.45 m/s, 145° | - | - |
| 1777678750 | 27.78° C | - | - | 0 mm | 2.68 m/s, 104° | - | - |
| 1777678149 | 27.78° C | - | - | 0 mm | 2.68 m/s, 53° | - | - |
| 1777677548 | 27.22° C | - | - | 0 mm | 2.24 m/s, 65° | - | - |
| 1777676947 | 27.22° C | - | - | 0 mm | 2.24 m/s, 52° | - | - |
| 1777676346 | 26.67° C | - | - | 0 mm | 3.58 m/s, 117° | - | - |
| 1777675745 | 27.22° C | - | - | 0 mm | 0.89 m/s, 62° | - | - |
| 1777675144 | 27.22° C | - | - | 0 mm | 2.68 m/s, 93° | - | - |
| 1777674544 | 27.78° C | - | - | 0 mm | 1.34 m/s, 13° | - | - |
| 1777673943 | 27.78° C | - | - | 0 mm | 1.79 m/s, 115° | - | - |
| 1777673341 | 26.67° C | - | - | 0 mm | 0.89 m/s, 60° | - | - |
| 1777672740 | 26.67° C | - | - | 0 mm | 1.34 m/s, 58° | - | - |
| 1777672139 | 26.67° C | - | - | 0 mm | 2.24 m/s, 21° | - | - |
| 1777671538 | 26.67° C | - | - | 0 mm | 2.68 m/s, 76° | - | - |
* Rain latest hour (hover to see other rain measurements)
** Current wind speed in m/s (hover to see current wind gust speed)